ARIANE 5 DEB (SYLDA)

Satellite information

Favourite Embed

Satellite Type and Status

DEBRISIN ORBIT

Key statistics

Satellite ARIANE 5 DEB (SYLDA) at a glance.

Uptime

2163

Days in orbit

Revolutions

≈ 6.9

Per day

Orbit

MEO

Medium Earth Orbit

Inclination

5.3

Latest

Satellite identification and parameters

Extended collection of information and parameters for ARIANE 5 DEB (SYLDA).

Object identification

Identified? True

Debris? True

Object name: ARIANE 5 DEB (SYLDA)

International designator: 2019-080D

Object number (NORAD): 44803

Object ID (CCSDS): 44803

Country: FRANCE (FR)

Current information (Y/N): Y

RCS size: LARGE

Orbital parameters

Period: 207.916 minutes

Inclination: 5.312 deg

SMA: 11625.697 km

Apoapsis: 10259.392 km

Periapsis: 235.731 km

RAAN: 94.2368 deg

Eccentricy: 0.43109937

Argument of periapsis: 27.5077 deg

Mean anomaly: 349.9034 deg

Mean motion: 6.9258691 rev/day

Mean motion (dot): 0.0020952 rev/day2

B* drag term: 0.0069059288 1/REarth

Two-line elements (TLE)

Creation date: Oct. 28, 2025, 2:18 a.m.

Reference frame: TEME

Reference center: EARTH

Epoch: Oct. 27, 2025, 3:25 p.m. UTC

TLE line 0: 0 ARIANE 5 DEB (SYLDA)

TLE line 1: 1 44803U 19080D 25300.64266689 .00209520 00000-0 69059-2 0 9993

TLE line 2: 2 44803 5.3120 94.2368 4310994 27.5077 349.9034 6.92586910 86767

Live tracking on map

Real-time ground track for satellite ARIANE 5 DEB (SYLDA).

In-orbit conjunctions

A list of the most updated potential collisions computed for object ARIANE 5 DEB (SYLDA).

Target Orbit TCA Probability of collision Miss distance Type
ARIANE 44L DEB MEO 2024-06-11 11:58:10 TBA 2780.0 (m) DEBRIS

Associated space launch

TIBA-1 is a geostationary communications satellite for the Government of Egypt developed jointly by Thales Alenia Space (TAS) and Airbus. TAS, the leading partner, designed and built the communications payload, featuring a dual mission in Ka-band for secure and broadband communications. Airbus Defence and Space supplied the Eurostar E3000 platform and assembled and tested the spacecraft. Designed to remain in service in orbit for more than 15 years, TIBA-1 will have a launch mass of 5600 kg and an electric power capability of higher than 9 kW. Inmarsat-5 F5 (Global Xpress-5 or GX-5) is Inmarsat's very high throughput satellite (V-HTS), which will offer services covering the Middle East, Europe and the Indian sub-continent. The payload will be fully integrated into Inmarsat’s current Global Express high-speed network. Inmarsat-5 F5 satellite is based on Thales Alenia Space’s upgraded Spacebus 4000 B2 platform and will be fitted with 72 Ka-band beams. With a specified design life of 16 years, it will weigh 4007 kg at launch and will offer payload power of about 6.8 kW.

ARIANE 5 DEB (SYLDA) was lifted into orbit during the mission ‘Ariane 5 ECA | TIBA-1 & Inmarsat-5 F5 (Global Xpress-5)’, on board a Ariane 5 ECA space rocket.

The launch took place on Nov. 26, 2019, 9:23 p.m. from Ariane Launch Area 3.

For more information about the launch, click the button.

Launch to space Ariane 5 ECA | TIBA-1 & Inmarsat-5 F5 (Global Xpress-5)
Ariane 5 ECA | TIBA-1 & Inmarsat-5 F5 (Global Xpress-5)

Agency: N/A

Status: Launch Successful

Launch date: Nov. 26, 2019, 9:23 p.m. UTC

Rocket: Ariane 5 ECA

Launch pad: Ariane Launch Area 3

Location: Guiana Space Centre, French Guiana

...

Latest news about this satellite

News about space launch
Ariane 5 launches with TIBA-1 and Inmarsat GX5

News about space launch
An Ariane rocket launches for the 250th time—the views were jawdropping

News about space launch
Launch of 250th Ariane rocket marks new era for Inmarsat broadband fleet


Newsletter sign-up

Weekly statistics, charts and insights to help you stay on top of the space industry.